ALESUND/VIGRA current weather conditions

sailwx.info

Wind from 200 at 14 knots

Air temperature 8.0° C
Visibility: greater than 5.4 NM
Dewpoint 3.0° C

Last reported at 2017-Jan-24 17:20 UTC.
Time now 2017-Jan-24 19:27 UTC

Location: N 62°34' E 006°07'.
View on Google Maps.

See reports from other nearby stations

  
Tides and Currents Weather Stations Pressure Air Temp Water Temp Dewpoint Dewpoint Depression Visibility Wind Speed Wind Dir Waves Ship Positions
date/time (UTC)wind fromknots sea level pressurealtimeterstation pressurevisibilityair tempwater tempwave heightnotes
2017-Jan-24 18:20 200 13 5.4 8.0
2017-Jan-24 17:50 200 13 5.4 8.0
2017-Jan-24 17:20 200 14 5.4 8.0
2017-Jan-24 16:50 190 13 5.4 8.0
2017-Jan-24 16:20 190 14 5.4 8.0
2017-Jan-24 15:50 200 14 5.4 8.0 Light drizzle.
2017-Jan-24 15:20 200 17 gusting 27 5.4 8.0 Light drizzle.
2017-Jan-24 14:50 200 17 gusting 27 5.4 8.0
2017-Jan-24 14:20 200 13 5.4 8.0
2017-Jan-24 13:50 180 13 5.4 8.0
2017-Jan-24 13:20 190 13 5.4 8.0
2017-Jan-24 12:50 190 15 5.4 8.0
2017-Jan-24 12:20 190 18 5.4 7.0
2017-Jan-24 11:50 200 14 5.4 7.0
2017-Jan-24 11:20 210 15 5.4 7.0
2017-Jan-24 10:50 200 12 5.4 7.0
2017-Jan-24 10:20 210 8 5.4 6.0
2017-Jan-24 09:50 210 9 5.4 6.0
2017-Jan-24 09:20 210 8 5.4 6.0
2017-Jan-24 08:50 170 5 5.4 6.0
2017-Jan-24 08:20 190 6 5.4 6.0
2017-Jan-24 07:50 200 11 5.4 6.0
2017-Jan-24 07:20 190 8 5.4 6.0
2017-Jan-24 06:50 200 9 5.4 6.0
2017-Jan-24 06:20 190 5 5.4 6.0
2017-Jan-24 05:50 150 6 5.4 6.0
2017-Jan-24 05:20 180 6 5.4 6.0
2017-Jan-24 04:50 190 8 5.4 6.0
2017-Jan-24 04:20 190 6 5.4 6.0
2017-Jan-24 03:50 210 6 5.4 6.0
2017-Jan-24 03:20 210 8 5.4 6.0
2017-Jan-24 02:50 200 7 5.4 6.0
2017-Jan-24 02:20 200 7 5.4 6.0
2017-Jan-24 01:50 210 9 5.4 6.0
2017-Jan-24 01:20 190 6 5.4 6.0
2017-Jan-24 00:50 200 7 5.4 6.0
2017-Jan-24 00:20 190 6 5.4 6.0
2017-Jan-23 23:50 200 6 5.4 6.0
2017-Jan-23 23:20 190 8 5.4 6.0
2017-Jan-23 22:50 200 7 5.4 6.0
2017-Jan-23 22:20 200 6 5.4 6.0
2017-Jan-23 21:50 210 8 5.4 6.0
2017-Jan-23 21:20 200 7 5.4 6.0
2017-Jan-23 20:50 200 7 5.4 6.0 Light rain.
2017-Jan-23 20:20 200 6 5.4 5.0 Light rain.
2017-Jan-23 19:50 180 5 5.4 5.0 Light rain.
2017-Jan-23 19:20 210 7 4.9 5.0 Rain.
2017-Jan-23 18:50 220 8 5.4 5.0
2017-Jan-23 18:20 220 13 5.4 5.0 Light rain.
2017-Jan-23 17:50 220 13 5.4 5.0 Light rain.
2017-Jan-23 17:20 220 12 5.4 5.0
2017-Jan-23 16:50 220 13 5.4 5.0
2017-Jan-23 16:20 220 12 5.4 5.0
2017-Jan-23 15:50 250 6 5.4 5.0 Showers in the vicinity.
2017-Jan-23 15:20 260 7 5.4 5.0 Showers in the vicinity.
2017-Jan-23 14:50 260 7 5.4 5.0 Showers in the vicinity.
2017-Jan-23 14:20 260 8 5.4 5.0 Showers in the vicinity.
2017-Jan-23 13:50 250 6 5.4 5.0 Rain showers.
2017-Jan-23 13:20 240 9 5.4 5.0
2017-Jan-23 12:50 260 7 5.4 6.0
2017-Jan-23 12:20 260 7 5.4 5.0
2017-Jan-23 11:50 250 6 5.4 6.0 Showers in the vicinity.
2017-Jan-23 11:20 250 9 5.4 6.0 Showers in the vicinity.
2017-Jan-23 10:50 260 13 5.4 6.0 Showers in the vicinity.
2017-Jan-23 10:20 270 9 5.4 6.0
2017-Jan-23 09:50 270 13 5.4 5.0 Light drizzle.
2017-Jan-23 09:20 260 9 5.4 6.0 Showers in the vicinity.
2017-Jan-23 08:50 260 11 5.4 6.0 Showers in the vicinity.
2017-Jan-23 08:20 260 13 5.4 5.0 Light rain.
2017-Jan-23 07:50 260 12 5.4 5.0
2017-Jan-23 07:20 260 13 5.4 5.0 Light rain.
2017-Jan-23 06:50 250 13 5.4 5.0
2017-Jan-23 06:20 250 15 5.4 5.0
2017-Jan-23 05:50 260 12 5.4 5.0 Light rain.
2017-Jan-23 05:20 250 13 5.4 6.0
2017-Jan-23 04:50 250 14 5.4 6.0
2017-Jan-23 04:20 260 15 5.4 6.0 Light rain.
2017-Jan-23 03:50 260 14 5.4 6.0 Light drizzle.
2017-Jan-23 03:20 260 14 3.8 6.0
2017-Jan-23 02:50 250 14 5.4 6.0
2017-Jan-23 02:20 240 15 5.4 6.0
2017-Jan-23 01:50 230 20 5.4 6.0
2017-Jan-23 01:20 240 15 3.8 6.0 Light rain.
2017-Jan-23 00:50 220 21 4.3 6.0 Light drizzle.
2017-Jan-23 00:20 230 21 4.9 6.0 Drizzle.
2017-Jan-22 23:50 220 20 5.4 6.0 Drizzle.
2017-Jan-22 23:20 220 20 5.4 6.0
2017-Jan-22 22:50 210 19 5.4 6.0
2017-Jan-22 22:20 220 19 5.4 6.0
2017-Jan-22 21:50 220 20 5.4 6.0
2017-Jan-22 21:20 220 19 5.4 6.0
2017-Jan-22 20:50 220 19 5.4 6.0
2017-Jan-22 20:20 220 19 5.4 6.0
2017-Jan-22 19:50 220 17 5.4 6.0 Light drizzle.
2017-Jan-22 19:20 220 17 5.4 6.0 Light rain.